Location: Allonne
(49.4086°N, 2.1143°E)
Time: 08:33:15
(UTC+00:00)

Cosmos 1892 - Pass Details

Date: 03 February 2023
Orbit: 487 x 506 km, 82.5° (Epoch: 23 March)

Event Time Altitude Azimuth Distance (km) Brightness Sun altitude
Rises 18:05:56 0° 187° (S) 2,572 6.5 -12.5°
Reaches altitude 10° 18:08:01 10° 188° (S) 1,699 5.5 -12.8°
Maximum altitude 18:11:45 88° 100° (E) 510 2.6 -13.4°
Drops below altitude 10° 18:15:33 10° 10° (N) 1,730 5.2 -14.0°
Sets 18:17:41 0° 11° (N) 2,624 6.1 -14.4°
